SAUDISAT 1C (SO-50)

Last updated on Wed Aug 19 2026 00:03:14 GMT+0000 (Coordinated Universal Time)

1 27607U 02058C 26230.59513479 .00000744 00000+0 10522-3 0 9990 2 27607 64.5522 295.8794 0073336 251.0222 108.2927 14.83163453273715
UTC large
Height (km)
Speed (km/s)
/
Latitude / Longitude
Inclination (degrees)
Orbital Period (minutes)
Azimuth
Elevation
Range (km)
Doppler Factor

Next 0 passes for location: London (51.5072 / 0.1276)

No passes found over London.
SAUDISAT 1C (SO-50)